Gauley Below the Meadow [ USA-WVR ]

Edit Gauge

Current Conditions

Reading of "n/a" = frozen gauge or gauge error.
Reading Trend Type Updated
276 cfs -4 cfs/hr Flow 02h12m

Station Description

AW Gauge ID: 43451
Source: virtual
Station: 6192
Enabled yes
Description:Summersville Gauley + the Meadow.
Calculation:$flow=$gauge[8515]->getValue(GMETRIC_FLOW,120*60)+$gauge[51285]->getValue(GMETRIC_FLOW,60*120);
Data is courtesy of AW's Stream Team program. This data is calculated based on other gauges and information provided by the Stream Team. This data, and any river data, should be used with caution.

Information

Flow

Gauge History

Times listed in GMT 24h, ET and PT hours provided for convenience Graphs in GMT. Readings of "n/a" constitute a frozen gauge or gauge error.
Reading Updated (GMT) Eastern Pacific Comment
275.93 08/01/2014 22:11:12 Aug 1 06:11 pm Aug 1 3:11 pm
280.36 08/01/2014 21:11:28 Aug 1 05:11 pm Aug 1 2:11 pm
276.93 08/01/2014 20:11:44 Aug 1 04:11 pm Aug 1 1:11 pm
277.93 08/01/2014 19:12:00 Aug 1 03:12 pm Aug 1 12:12 pm
282.36 08/01/2014 18:12:16 Aug 1 02:12 pm Aug 1 11:12 am
282.36 08/01/2014 17:12:32 Aug 1 01:12 pm Aug 1 10:12 am
278.93 08/01/2014 16:12:48 Aug 1 12:12 pm Aug 1 9:12 am
282.36 08/01/2014 15:13:04 Aug 1 11:13 am Aug 1 8:13 am
284.36 08/01/2014 14:11:12 Aug 1 10:11 am Aug 1 7:11 am
280.93 08/01/2014 13:11:28 Aug 1 09:11 am Aug 1 6:11 am
281.93 08/01/2014 12:11:44 Aug 1 08:11 am Aug 1 5:11 am
281.93 08/01/2014 11:12:00 Aug 1 07:12 am Aug 1 4:12 am
285.36 08/01/2014 10:12:16 Aug 1 06:12 am Aug 1 3:12 am
281.93 08/01/2014 09:12:32 Aug 1 05:12 am Aug 1 2:12 am
282.93 08/01/2014 08:12:48 Aug 1 04:12 am Aug 1 1:12 am
282.93 08/01/2014 07:13:04 Aug 1 03:13 am Aug 1 12:13 am
283.93 08/01/2014 06:11:12 Aug 1 02:11 am Jul 31 11:11 pm
284.93 08/01/2014 05:11:28 Aug 1 01:11 am Jul 31 10:11 pm
285.93 08/01/2014 04:11:44 Aug 1 12:11 am Jul 31 9:11 pm
285.93 08/01/2014 03:12:00 Jul 31 11:12 pm Jul 31 8:12 pm
287.93 08/01/2014 02:12:16 Jul 31 10:12 pm Jul 31 7:12 pm
287.93 08/01/2014 00:12:48 Jul 31 08:12 pm Jul 31 5:12 pm
288.93 07/31/2014 23:13:04 Jul 31 07:13 pm Jul 31 4:13 pm
289.93 07/31/2014 22:11:12 Jul 31 06:11 pm Jul 31 3:11 pm
290.93 07/31/2014 21:11:28 Jul 31 05:11 pm Jul 31 2:11 pm
292.93 07/31/2014 20:11:44 Jul 31 04:11 pm Jul 31 1:11 pm
293.93 07/31/2014 19:12:00 Jul 31 03:12 pm Jul 31 12:12 pm
294.93 07/31/2014 18:12:16 Jul 31 02:12 pm Jul 31 11:12 am
296.93 07/31/2014 17:12:32 Jul 31 01:12 pm Jul 31 10:12 am
301.36 07/31/2014 16:12:48 Jul 31 12:12 pm Jul 31 9:12 am
297.93 07/31/2014 15:13:04 Jul 31 11:13 am Jul 31 8:13 am
298.93 07/31/2014 14:11:12 Jul 31 10:11 am Jul 31 7:11 am
304.36 07/31/2014 13:11:28 Jul 31 09:11 am Jul 31 6:11 am
351.21 07/31/2014 12:11:44 Jul 31 08:11 am Jul 31 5:11 am
354.83 07/31/2014 11:12:00 Jul 31 07:12 am Jul 31 4:12 am
356.83 07/31/2014 10:12:16 Jul 31 06:12 am Jul 31 3:12 am
357.83 07/31/2014 09:12:32 Jul 31 05:12 am Jul 31 2:12 am
359.83 07/31/2014 08:12:48 Jul 31 04:12 am Jul 31 1:12 am
359.83 07/31/2014 07:13:04 Jul 31 03:13 am Jul 31 12:13 am
357.21 07/31/2014 06:11:12 Jul 31 02:11 am Jul 30 11:11 pm
363.83 07/31/2014 05:11:28 Jul 31 01:11 am Jul 30 10:11 pm
365.83 07/31/2014 04:11:44 Jul 31 12:11 am Jul 30 9:11 pm
363.21 07/31/2014 03:12:00 Jul 30 11:12 pm Jul 30 8:12 pm
369.83 07/31/2014 01:12:32 Jul 30 09:12 pm Jul 30 6:12 pm
369.83 07/31/2014 00:12:48 Jul 30 08:12 pm Jul 30 5:12 pm
371.83 07/30/2014 23:13:04 Jul 30 07:13 pm Jul 30 4:13 pm
374.83 07/30/2014 22:11:12 Jul 30 06:11 pm Jul 30 3:11 pm
376.83 07/30/2014 21:11:28 Jul 30 05:11 pm Jul 30 2:11 pm
377.83 07/30/2014 20:11:44 Jul 30 04:11 pm Jul 30 1:11 pm
378.21 07/30/2014 19:12:00 Jul 30 03:12 pm Jul 30 12:12 pm
382.83 07/30/2014 18:12:16 Jul 30 02:12 pm Jul 30 11:12 am
387.21 07/30/2014 17:12:32 Jul 30 01:12 pm Jul 30 10:12 am
390.21 07/30/2014 14:11:12 Jul 30 10:11 am Jul 30 7:11 am
395.83 07/30/2014 13:11:28 Jul 30 09:11 am Jul 30 6:11 am
594.55 07/30/2014 12:11:44 Jul 30 08:11 am Jul 30 5:11 am
600.55 07/30/2014 11:12:00 Jul 30 07:12 am Jul 30 4:12 am
604.55 07/30/2014 09:12:32 Jul 30 05:12 am Jul 30 2:12 am
606.55 07/30/2014 08:12:48 Jul 30 04:12 am Jul 30 1:12 am
606.55 07/30/2014 07:13:04 Jul 30 03:13 am Jul 30 12:13 am
611.55 07/30/2014 06:11:12 Jul 30 02:11 am Jul 29 11:11 pm
613.55 07/30/2014 05:11:28 Jul 30 01:11 am Jul 29 10:11 pm
616.55 07/30/2014 04:11:44 Jul 30 12:11 am Jul 29 9:11 pm
618.55 07/30/2014 03:12:00 Jul 29 11:12 pm Jul 29 8:12 pm
621.55 07/30/2014 02:12:16 Jul 29 10:12 pm Jul 29 7:12 pm
623.55 07/30/2014 01:12:32 Jul 29 09:12 pm Jul 29 6:12 pm
623.55 07/30/2014 00:12:48 Jul 29 08:12 pm Jul 29 5:12 pm
625.55 07/29/2014 23:13:04 Jul 29 07:13 pm Jul 29 4:13 pm
625.25 07/29/2014 22:11:12 Jul 29 06:11 pm Jul 29 3:11 pm
629.55 07/29/2014 21:11:28 Jul 29 05:11 pm Jul 29 2:11 pm
630.55 07/29/2014 20:11:44 Jul 29 04:11 pm Jul 29 1:11 pm
632.55 07/29/2014 18:12:16 Jul 29 02:12 pm Jul 29 11:12 am
632.55 07/29/2014 17:12:32 Jul 29 01:12 pm Jul 29 10:12 am
628.25 07/29/2014 16:12:48 Jul 29 12:12 pm Jul 29 9:12 am
634.55 07/29/2014 15:13:04 Jul 29 11:13 am Jul 29 8:13 am
636.55 07/29/2014 14:11:12 Jul 29 10:11 am Jul 29 7:11 am
640.88 07/29/2014 13:11:28 Jul 29 09:11 am Jul 29 6:11 am
460.17 07/29/2014 12:11:44 Jul 29 08:11 am Jul 29 5:11 am
447.47 07/29/2014 11:12:00 Jul 29 07:12 am Jul 29 4:12 am
447.47 07/29/2014 10:12:16 Jul 29 06:12 am Jul 29 3:12 am
449.47 07/29/2014 09:12:32 Jul 29 05:12 am Jul 29 2:12 am
451.47 07/29/2014 08:12:48 Jul 29 04:12 am Jul 29 1:12 am
451.47 07/29/2014 07:13:04 Jul 29 03:13 am Jul 29 12:13 am
449.47 07/29/2014 05:11:28 Jul 29 01:11 am Jul 28 10:11 pm
392.93 07/29/2014 04:11:44 Jul 29 12:11 am Jul 28 9:11 pm
335.93 07/28/2014 12:11:44 Jul 28 08:11 am Jul 28 5:11 am
323.51 07/28/2014 11:12:00 Jul 28 07:12 am Jul 28 4:12 am
316.51 07/28/2014 10:12:16 Jul 28 06:12 am Jul 28 3:12 am
309.51 07/28/2014 09:12:32 Jul 28 05:12 am Jul 28 2:12 am
303.51 07/28/2014 08:12:48 Jul 28 04:12 am Jul 28 1:12 am
303.51 07/28/2014 07:13:04 Jul 28 03:13 am Jul 28 12:13 am
298.51 07/28/2014 06:11:12 Jul 28 02:11 am Jul 27 11:11 pm
297.51 07/28/2014 05:11:28 Jul 28 01:11 am Jul 27 10:11 pm
300.93 07/28/2014 04:11:44 Jul 28 12:11 am Jul 27 9:11 pm
297.51 07/28/2014 03:12:00 Jul 27 11:12 pm Jul 27 8:12 pm
291.51 07/28/2014 02:12:16 Jul 27 10:12 pm Jul 27 7:12 pm
291.51 07/28/2014 01:12:32 Jul 27 09:12 pm Jul 27 6:12 pm
291.51 07/28/2014 00:12:48 Jul 27 08:12 pm Jul 27 5:12 pm
291.51 07/27/2014 23:13:04 Jul 27 07:13 pm Jul 27 4:13 pm
289.51 07/27/2014 22:11:12 Jul 27 06:11 pm Jul 27 3:11 pm
293.93 07/27/2014 21:11:28 Jul 27 05:11 pm Jul 27 2:11 pm
290.51 07/27/2014 20:11:44 Jul 27 04:11 pm Jul 27 1:11 pm
289.51 07/27/2014 19:12:00 Jul 27 03:12 pm Jul 27 12:12 pm
292.93 07/27/2014 18:12:16 Jul 27 02:12 pm Jul 27 11:12 am
287.51 07/27/2014 17:12:32 Jul 27 01:12 pm Jul 27 10:12 am
286.51 07/27/2014 16:12:48 Jul 27 12:12 pm Jul 27 9:12 am
289.93 07/27/2014 15:13:04 Jul 27 11:13 am Jul 27 8:13 am
285.51 07/27/2014 13:11:28 Jul 27 09:11 am Jul 27 6:11 am
286.51 07/27/2014 12:11:44 Jul 27 08:11 am Jul 27 5:11 am
287.51 07/27/2014 11:12:00 Jul 27 07:12 am Jul 27 4:12 am
287.51 07/27/2014 10:12:16 Jul 27 06:12 am Jul 27 3:12 am
290.93 07/27/2014 09:12:32 Jul 27 05:12 am Jul 27 2:12 am
287.51 07/27/2014 08:12:48 Jul 27 04:12 am Jul 27 1:12 am
287.51 07/27/2014 07:13:04 Jul 27 03:13 am Jul 27 12:13 am
293.93 07/27/2014 06:11:12 Jul 27 02:11 am Jul 26 11:11 pm
293.93 07/27/2014 05:11:28 Jul 27 01:11 am Jul 26 10:11 pm
293.51 07/27/2014 04:11:44 Jul 27 12:11 am Jul 26 9:11 pm
294.51 07/27/2014 03:12:00 Jul 26 11:12 pm Jul 26 8:12 pm
295.51 07/27/2014 02:12:16 Jul 26 10:12 pm Jul 26 7:12 pm
301.93 07/27/2014 01:12:32 Jul 26 09:12 pm Jul 26 6:12 pm
298.51 07/27/2014 00:12:48 Jul 26 08:12 pm Jul 26 5:12 pm
300.51 07/26/2014 23:13:04 Jul 26 07:13 pm Jul 26 4:13 pm
303.51 07/26/2014 22:11:12 Jul 26 06:11 pm Jul 26 3:11 pm
306.51 07/26/2014 21:11:28 Jul 26 05:11 pm Jul 26 2:11 pm
309.51 07/26/2014 20:11:44 Jul 26 04:11 pm Jul 26 1:11 pm
310.51 07/26/2014 19:12:00 Jul 26 03:12 pm Jul 26 12:12 pm
312.51 07/26/2014 18:12:16 Jul 26 02:12 pm Jul 26 11:12 am
315.51 07/26/2014 17:12:32 Jul 26 01:12 pm Jul 26 10:12 am
319.93 07/26/2014 16:12:48 Jul 26 12:12 pm Jul 26 9:12 am
316.51 07/26/2014 15:13:04 Jul 26 11:13 am Jul 26 8:13 am
321.51 07/26/2014 14:11:12 Jul 26 10:11 am Jul 26 7:11 am
323.51 07/26/2014 13:11:28 Jul 26 09:11 am Jul 26 6:11 am
325.51 07/26/2014 12:11:44 Jul 26 08:11 am Jul 26 5:11 am
326.51 07/26/2014 11:12:00 Jul 26 07:12 am Jul 26 4:12 am
331.93 07/26/2014 10:12:16 Jul 26 06:12 am Jul 26 3:12 am
330.51 07/26/2014 09:12:32 Jul 26 05:12 am Jul 26 2:12 am
330.51 07/26/2014 08:12:48 Jul 26 04:12 am Jul 26 1:12 am
330.51 07/26/2014 07:13:04 Jul 26 03:13 am Jul 26 12:13 am
328.51 07/26/2014 05:11:28 Jul 26 01:11 am Jul 25 10:11 pm
326.51 07/26/2014 04:11:44 Jul 26 12:11 am Jul 25 9:11 pm
326.93 07/26/2014 03:12:00 Jul 25 11:12 pm Jul 25 8:12 pm
323.51 07/26/2014 01:12:32 Jul 25 09:12 pm Jul 25 6:12 pm
326.93 07/26/2014 00:12:48 Jul 25 08:12 pm Jul 25 5:12 pm
328.93 07/25/2014 23:13:04 Jul 25 07:13 pm Jul 25 4:13 pm
331.93 07/25/2014 22:11:12 Jul 25 06:11 pm Jul 25 3:11 pm
330.51 07/25/2014 21:11:28 Jul 25 05:11 pm Jul 25 2:11 pm
334.51 07/25/2014 20:11:44 Jul 25 04:11 pm Jul 25 1:11 pm
337.51 07/25/2014 19:12:00 Jul 25 03:12 pm Jul 25 12:12 pm
341.51 07/25/2014 18:12:16 Jul 25 02:12 pm Jul 25 11:12 am
346.93 07/25/2014 17:12:32 Jul 25 01:12 pm Jul 25 10:12 am
347.51 07/25/2014 16:12:48 Jul 25 12:12 pm Jul 25 9:12 am
350.93 07/25/2014 15:13:04 Jul 25 11:13 am Jul 25 8:13 am
351.51 07/25/2014 14:11:12 Jul 25 10:11 am Jul 25 7:11 am
349.51 07/25/2014 13:11:28 Jul 25 09:11 am Jul 25 6:11 am
347.51 07/25/2014 12:11:44 Jul 25 08:11 am Jul 25 5:11 am
339.51 07/25/2014 11:12:00 Jul 25 07:12 am Jul 25 4:12 am
335.51 07/25/2014 09:12:32 Jul 25 05:12 am Jul 25 2:12 am
337.93 07/25/2014 08:12:48 Jul 25 04:12 am Jul 25 1:12 am
337.93 07/25/2014 07:13:04 Jul 25 03:13 am Jul 25 12:13 am
337.51 07/25/2014 06:11:12 Jul 25 02:11 am Jul 24 11:11 pm
341.51 07/25/2014 05:11:28 Jul 25 01:11 am Jul 24 10:11 pm
349.51 07/25/2014 04:11:44 Jul 25 12:11 am Jul 24 9:11 pm
349.51 07/25/2014 01:12:32 Jul 24 09:12 pm Jul 24 6:12 pm
347.51 07/25/2014 00:12:48 Jul 24 08:12 pm Jul 24 5:12 pm
347.51 07/24/2014 23:13:04 Jul 24 07:13 pm Jul 24 4:13 pm
315.93 07/24/2014 22:11:12 Jul 24 06:11 pm Jul 24 3:11 pm
283.51 07/24/2014 21:11:28 Jul 24 05:11 pm Jul 24 2:11 pm
277.51 07/24/2014 20:11:44 Jul 24 04:11 pm Jul 24 1:11 pm
276.51 07/24/2014 19:12:00 Jul 24 03:12 pm Jul 24 12:12 pm
273.11 07/24/2014 18:12:16 Jul 24 02:12 pm Jul 24 11:12 am
276.51 07/24/2014 17:12:32 Jul 24 01:12 pm Jul 24 10:12 am
275.51 07/24/2014 16:12:48 Jul 24 12:12 pm Jul 24 9:12 am
275.51 07/24/2014 15:13:04 Jul 24 11:13 am Jul 24 8:13 am
275.51 07/24/2014 14:11:12 Jul 24 10:11 am Jul 24 7:11 am
277.93 07/24/2014 13:11:28 Jul 24 09:11 am Jul 24 6:11 am
148.84 07/24/2014 12:11:44 Jul 24 08:11 am Jul 24 5:11 am
131.79 07/24/2014 11:12:00 Jul 24 07:12 am Jul 24 4:12 am
127.79 07/24/2014 10:12:16 Jul 24 06:12 am Jul 24 3:12 am
125.79 07/24/2014 09:12:32 Jul 24 05:12 am Jul 24 2:12 am
124.79 07/24/2014 08:12:48 Jul 24 04:12 am Jul 24 1:12 am
124.79 07/24/2014 07:13:04 Jul 24 03:13 am Jul 24 12:13 am
123.79 07/24/2014 06:11:12 Jul 24 02:11 am Jul 23 11:11 pm
122.79 07/24/2014 05:11:28 Jul 24 01:11 am Jul 23 10:11 pm
123.04 07/24/2014 04:11:44 Jul 24 12:11 am Jul 23 9:11 pm
122.04 07/24/2014 03:12:00 Jul 23 11:12 pm Jul 23 8:12 pm
119.04 07/24/2014 02:12:16 Jul 23 10:12 pm Jul 23 7:12 pm
118.04 07/24/2014 01:12:32 Jul 23 09:12 pm Jul 23 6:12 pm
113.56 07/24/2014 00:12:48 Jul 23 08:12 pm Jul 23 5:12 pm
114.56 07/23/2014 23:13:04 Jul 23 07:13 pm Jul 23 4:13 pm
114.56 07/23/2014 22:11:12 Jul 23 06:11 pm Jul 23 3:11 pm
114.56 07/23/2014 21:11:28 Jul 23 05:11 pm Jul 23 2:11 pm
114.56 07/23/2014 20:11:44 Jul 23 04:11 pm Jul 23 1:11 pm
114.56 07/23/2014 19:12:00 Jul 23 03:12 pm Jul 23 12:12 pm
116.79 07/23/2014 18:12:16 Jul 23 02:12 pm Jul 23 11:12 am
117.79 07/23/2014 17:12:32 Jul 23 01:12 pm Jul 23 10:12 am
117.79 07/23/2014 16:12:48 Jul 23 12:12 pm Jul 23 9:12 am
117.79 07/23/2014 15:13:04 Jul 23 11:13 am Jul 23 8:13 am
117.79 07/23/2014 14:11:12 Jul 23 10:11 am Jul 23 7:11 am
120.04 07/23/2014 13:11:28 Jul 23 09:11 am Jul 23 6:11 am
116.56 07/23/2014 12:11:44 Jul 23 08:11 am Jul 23 5:11 am
116.56 07/23/2014 11:12:00 Jul 23 07:12 am Jul 23 4:12 am
116.56 07/23/2014 10:12:16 Jul 23 06:12 am Jul 23 3:12 am
118.79 07/23/2014 09:12:32 Jul 23 05:12 am Jul 23 2:12 am
116.56 07/23/2014 08:12:48 Jul 23 04:12 am Jul 23 1:12 am
116.56 07/23/2014 07:13:04 Jul 23 03:13 am Jul 23 12:13 am
118.79 07/23/2014 06:11:12 Jul 23 02:11 am Jul 22 11:11 pm
116.56 07/23/2014 05:11:28 Jul 23 01:11 am Jul 22 10:11 pm
116.56 07/23/2014 04:11:44 Jul 23 12:11 am Jul 22 9:11 pm
116.56 07/23/2014 03:12:00 Jul 22 11:12 pm Jul 22 8:12 pm
116.56 07/23/2014 01:12:32 Jul 22 09:12 pm Jul 22 6:12 pm
116.56 07/23/2014 00:12:48 Jul 22 08:12 pm Jul 22 5:12 pm
116.56 07/22/2014 23:13:04 Jul 22 07:13 pm Jul 22 4:13 pm
116.56 07/22/2014 22:11:12 Jul 22 06:11 pm Jul 22 3:11 pm
116.56 07/22/2014 21:11:28 Jul 22 05:11 pm Jul 22 2:11 pm
116.56 07/22/2014 20:11:44 Jul 22 04:11 pm Jul 22 1:11 pm
114.56 07/22/2014 19:12:00 Jul 22 03:12 pm Jul 22 12:12 pm
115.56 07/22/2014 18:12:16 Jul 22 02:12 pm Jul 22 11:12 am
115.56 07/22/2014 17:12:32 Jul 22 01:12 pm Jul 22 10:12 am
114.56 07/22/2014 16:12:48 Jul 22 12:12 pm Jul 22 9:12 am
114.56 07/22/2014 15:13:04 Jul 22 11:13 am Jul 22 8:13 am
114.56 07/22/2014 14:11:12 Jul 22 10:11 am Jul 22 7:11 am
116.79 07/22/2014 13:11:28 Jul 22 09:11 am Jul 22 6:11 am
114.56 07/22/2014 12:11:44 Jul 22 08:11 am Jul 22 5:11 am
114.56 07/22/2014 11:12:00 Jul 22 07:12 am Jul 22 4:12 am
113.56 07/22/2014 10:12:16 Jul 22 06:12 am Jul 22 3:12 am
113.56 07/22/2014 09:12:32 Jul 22 05:12 am Jul 22 2:12 am
113.56 07/22/2014 08:12:48 Jul 22 04:12 am Jul 22 1:12 am
113.56 07/22/2014 07:13:04 Jul 22 03:13 am Jul 22 12:13 am
113.56 07/22/2014 06:11:12 Jul 22 02:11 am Jul 21 11:11 pm
113.56 07/22/2014 05:11:28 Jul 22 01:11 am Jul 21 10:11 pm
113.56 07/22/2014 04:11:44 Jul 22 12:11 am Jul 21 9:11 pm
113.56 07/22/2014 03:12:00 Jul 21 11:12 pm Jul 21 8:12 pm
114.56 07/22/2014 01:12:32 Jul 21 09:12 pm Jul 21 6:12 pm
114.56 07/22/2014 00:12:48 Jul 21 08:12 pm Jul 21 5:12 pm
114.56 07/21/2014 23:13:04 Jul 21 07:13 pm Jul 21 4:13 pm
114.56 07/21/2014 22:11:12 Jul 21 06:11 pm Jul 21 3:11 pm
114.56 07/21/2014 21:11:28 Jul 21 05:11 pm Jul 21 2:11 pm
113.56 07/21/2014 20:11:44 Jul 21 04:11 pm Jul 21 1:11 pm
114.56 07/21/2014 19:12:00 Jul 21 03:12 pm Jul 21 12:12 pm
114.56 07/21/2014 18:12:16 Jul 21 02:12 pm Jul 21 11:12 am
115.79 07/21/2014 17:12:32 Jul 21 01:12 pm Jul 21 10:12 am
113.56 07/21/2014 16:12:48 Jul 21 12:12 pm Jul 21 9:12 am
115.79 07/21/2014 15:13:04 Jul 21 11:13 am Jul 21 8:13 am
114.56 07/21/2014 14:11:12 Jul 21 10:11 am Jul 21 7:11 am
113.56 07/21/2014 13:11:28 Jul 21 09:11 am Jul 21 6:11 am
114.56 07/21/2014 12:11:44 Jul 21 08:11 am Jul 21 5:11 am
113.56 07/21/2014 11:12:00 Jul 21 07:12 am Jul 21 4:12 am
113.56 07/21/2014 09:12:32 Jul 21 05:12 am Jul 21 2:12 am
113.56 07/21/2014 08:12:48 Jul 21 04:12 am Jul 21 1:12 am
113.56 07/21/2014 07:13:04 Jul 21 03:13 am Jul 21 12:13 am
113.56 07/21/2014 06:11:12 Jul 21 02:11 am Jul 20 11:11 pm
113.56 07/21/2014 05:11:28 Jul 21 01:11 am Jul 20 10:11 pm
113.56 07/21/2014 04:11:44 Jul 21 12:11 am Jul 20 9:11 pm
114.79 07/21/2014 03:12:00 Jul 20 11:12 pm Jul 20 8:12 pm
114.79 07/21/2014 02:12:16 Jul 20 10:12 pm Jul 20 7:12 pm
114.79 07/21/2014 01:12:32 Jul 20 09:12 pm Jul 20 6:12 pm
117.04 07/21/2014 00:12:48 Jul 20 08:12 pm Jul 20 5:12 pm
117.04 07/20/2014 23:13:04 Jul 20 07:13 pm Jul 20 4:13 pm
160.65 07/20/2014 22:11:12 Jul 20 06:11 pm Jul 20 3:11 pm
161.65 07/20/2014 21:11:28 Jul 20 05:11 pm Jul 20 2:11 pm
161.65 07/20/2014 20:11:44 Jul 20 04:11 pm Jul 20 1:11 pm
158.81 07/20/2014 19:12:00 Jul 20 03:12 pm Jul 20 12:12 pm
161.65 07/20/2014 18:12:16 Jul 20 02:12 pm Jul 20 11:12 am
161.65 07/20/2014 16:12:48 Jul 20 12:12 pm Jul 20 9:12 am
161.65 07/20/2014 15:13:04 Jul 20 11:13 am Jul 20 8:13 am
162.65 07/20/2014 14:11:12 Jul 20 10:11 am Jul 20 7:11 am
162.65 07/20/2014 13:11:28 Jul 20 09:11 am Jul 20 6:11 am
162.65 07/20/2014 12:11:44 Jul 20 08:11 am Jul 20 5:11 am
159.81 07/20/2014 11:12:00 Jul 20 07:12 am Jul 20 4:12 am
159.81 07/20/2014 10:12:16 Jul 20 06:12 am Jul 20 3:12 am
159.81 07/20/2014 09:12:32 Jul 20 05:12 am Jul 20 2:12 am
159.81 07/20/2014 08:12:48 Jul 20 04:12 am Jul 20 1:12 am
162.65 07/20/2014 07:13:04 Jul 20 03:13 am Jul 20 12:13 am
163.65 07/20/2014 06:11:12 Jul 20 02:11 am Jul 19 11:11 pm
160.81 07/20/2014 04:11:44 Jul 20 12:11 am Jul 19 9:11 pm
164.65 07/19/2014 04:11:44 Jul 19 12:11 am Jul 18 9:11 pm
161.81 07/19/2014 03:12:00 Jul 18 11:12 pm Jul 18 8:12 pm
164.65 07/19/2014 01:12:32 Jul 18 09:12 pm Jul 18 6:12 pm
163.65 07/19/2014 00:12:48 Jul 18 08:12 pm Jul 18 5:12 pm
160.81 07/18/2014 23:13:04 Jul 18 07:13 pm Jul 18 4:13 pm
163.65 07/18/2014 22:11:12 Jul 18 06:11 pm Jul 18 3:11 pm
160.81 07/18/2014 21:11:28 Jul 18 05:11 pm Jul 18 2:11 pm
163.65 07/18/2014 20:11:44 Jul 18 04:11 pm Jul 18 1:11 pm
208.17 07/18/2014 18:12:16 Jul 18 02:12 pm Jul 18 11:12 am
261.36 07/18/2014 17:12:32 Jul 18 01:12 pm Jul 18 10:12 am
261.36 07/18/2014 16:12:48 Jul 18 12:12 pm Jul 18 9:12 am
261.36 07/18/2014 15:13:04 Jul 18 11:13 am Jul 18 8:13 am
257.93 07/18/2014 14:11:12 Jul 18 10:11 am Jul 18 7:11 am
257.93 07/18/2014 13:11:28 Jul 18 09:11 am Jul 18 6:11 am
257.93 07/18/2014 12:11:44 Jul 18 08:11 am Jul 18 5:11 am
257.93 07/18/2014 11:12:00 Jul 18 07:12 am Jul 18 4:12 am
257.93 07/18/2014 09:12:32 Jul 18 05:12 am Jul 18 2:12 am
257.93 07/18/2014 08:12:48 Jul 18 04:12 am Jul 18 1:12 am
257.93 07/18/2014 07:13:04 Jul 18 03:13 am Jul 18 12:13 am
257.93 07/18/2014 06:11:12 Jul 18 02:11 am Jul 17 11:11 pm
257.93 07/18/2014 05:11:28 Jul 18 01:11 am Jul 17 10:11 pm
257.93 07/18/2014 04:11:44 Jul 18 12:11 am Jul 17 9:11 pm
257.93 07/18/2014 03:12:00 Jul 17 11:12 pm Jul 17 8:12 pm
258.93 07/18/2014 01:12:32 Jul 17 09:12 pm Jul 17 6:12 pm
258.93 07/18/2014 00:12:48 Jul 17 08:12 pm Jul 17 5:12 pm
258.93 07/17/2014 23:13:04 Jul 17 07:13 pm Jul 17 4:13 pm

Report - Reports of Related Gauges

Reports give the public a chance to report on river conditions throughout the country as well as log the history of a river.

Reports

When River/Gauge Subject Level Reporter
5y68d12h19m Gauley Below the Meadow [WV] Account of 05/26/09 600 cfs Ryan Groth

Linked Reaches

Click a heading to sort. Hover over a heading for help.
River Name/Section Class Level running? Updated
Gauley [WV] 8 (Middle). Mason Branch to Bucklick Branch III+(IV) 276 cfs
-4 cfs/hr
L9-
Below Recom.
02h12m
Gauley [WV] 9 (Lower). Bucklick Branch to Swiss III-IV(V) 304 cfs
0 cfs/hr
L0-
Below Recom.
00h23m

Associated Gauges

Disclaimer Data Sources

Gauley at Summersville (cfs) (AW#8515)

232 cfs 00h57m

MEADOW RIVER AT NALLEN, WV (AW#51285)

45 cfs 01h10m

MEADOW RIVER AT NALLEN, WV (AW#51285)

3.35 ft 01h10m